Time,TemperatureF,DewpointF,PressureIn,WindDirection,WindDirectionDegrees,WindSpeedMPH,WindSpeedGustMPH,Humidity,HourlyPrecipIn,Conditions,Clouds,dailyrainin,SoftwareType,DateUTC
2013-05-17 00:03:00,81.0,-99.9,30.01,East,81,6.0,9.0,-999,-99.99,,,-99.99,,2013-05-17 04:03:00,
2013-05-17 00:13:00,81.0,-99.9,30.01,ENE,71,5.0,7.0,-999,-99.99,,,-99.99,,2013-05-17 04:13:00,
2013-05-17 00:23:00,80.0,-99.9,30.01,East,83,5.0,10.0,-999,-99.99,,,-99.99,,2013-05-17 04:23:00,
2013-05-17 00:34:00,80.0,-99.9,30.01,East,89,4.0,9.0,-999,-99.99,,,-99.99,,2013-05-17 04:34:00,
2013-05-17 00:43:00,80.0,-99.9,30.01,East,93,5.0,6.0,-999,-99.99,,,-99.99,,2013-05-17 04:43:00,
2013-05-17 00:53:00,81.0,-99.9,30.01,ENE,78,4.0,8.0,-999,-99.99,,,-99.99,,2013-05-17 04:53:00,
2013-05-17 01:03:00,80.0,-99.9,30.00,ENE,71,5.0,8.0,-999,-99.99,,,-99.99,,2013-05-17 05:03:00,
2013-05-17 01:14:00,81.0,-99.9,30.00,ENE,70,5.0,6.0,-999,-99.99,,,-99.99,,2013-05-17 05:14:00,
2013-05-17 01:22:00,80.0,-99.9,30.00,East,93,5.0,11.0,-999,-99.99,,,-99.99,,2013-05-17 05:22:00,
2013-05-17 01:32:00,80.0,-99.9,29.99,East,98,7.0,11.0,-999,-99.99,,,-99.99,,2013-05-17 05:32:00,
2013-05-17 01:43:00,80.0,-99.9,29.99,East,88,5.0,12.0,-999,-99.99,,,-99.99,,2013-05-17 05:43:00,
2013-05-17 01:52:00,80.0,-99.9,29.98,East,101,6.0,12.0,-999,-99.99,,,-99.99,,2013-05-17 05:52:00,
2013-05-17 02:02:00,80.0,-99.9,29.98,ESE,114,10.0,11.0,-999,-99.99,,,-99.99,,2013-05-17 06:02:00,
2013-05-17 02:11:00,80.0,-99.9,29.98,SE,124,8.0,11.0,-999,-99.99,,,-99.99,,2013-05-17 06:11:00,
2013-05-17 02:22:00,80.0,-99.9,29.98,ESE,111,8.0,9.0,-999,-99.99,,,-99.99,,2013-05-17 06:22:00,
2013-05-17 02:32:00,79.0,-99.9,29.97,ESE,114,8.0,10.0,-999,-99.99,,,-99.99,,2013-05-17 06:32:00,
2013-05-17 02:42:00,79.0,-99.9,29.97,SE,136,9.0,9.0,-999,-99.99,,,-99.99,,2013-05-17 06:42:00,
2013-05-17 02:52:00,79.0,-99.9,29.97,SE,131,10.0,11.0,-999,-99.99,,,-99.99,,2013-05-17 06:52:00,
2013-05-17 03:03:00,79.0,-99.9,29.97,SE,131,8.0,11.0,-999,-99.99,,,-99.99,,2013-05-17 07:03:00,
2013-05-17 03:11:00,79.0,-99.9,29.96,SE,135,7.0,9.0,-999,-99.99,,,-99.99,,2013-05-17 07:11:00,
2013-05-17 03:21:00,79.0,-99.9,29.96,SE,124,8.0,10.0,-999,-99.99,,,-99.99,,2013-05-17 07:21:00,
2013-05-17 03:32:00,79.0,-99.9,29.96,East,100,5.0,11.0,-999,-99.99,,,-99.99,,2013-05-17 07:32:00,
2013-05-17 03:43:00,79.0,-99.9,29.96,ESE,103,7.0,11.0,-999,-99.99,,,-99.99,,2013-05-17 07:43:00,
2013-05-17 03:53:00,79.0,-99.9,29.97,SE,135,8.0,9.0,-999,-99.99,,,-99.99,,2013-05-17 07:53:00,
2013-05-17 04:03:00,79.0,-99.9,-100.00,SE,131,8.0,9.0,-999,-99.99,,,-99.99,,2013-05-17 08:03:00,
2013-05-17 04:12:00,79.0,-99.9,-100.00,SE,136,8.0,10.0,-999,-99.99,,,-99.99,,2013-05-17 08:12:00,
2013-05-17 04:23:00,78.0,-99.9,-100.00,ESE,123,8.0,10.0,-999,-99.99,,,-99.99,,2013-05-17 08:23:00,
2013-05-17 04:34:00,79.0,-99.9,-100.00,ESE,120,8.0,9.0,-999,-99.99,,,-99.99,,2013-05-17 08:34:00,
2013-05-17 04:43:00,78.0,-99.9,-100.00,SE,129,9.0,10.0,-999,-99.99,,,-99.99,,2013-05-17 08:43:00,
2013-05-17 04:52:00,78.0,-99.9,-100.00,ESE,120,9.0,10.0,-999,-99.99,,,-99.99,,2013-05-17 08:52:00,
2013-05-17 05:02:00,79.0,-99.9,29.97,ESE,118,7.0,9.0,-999,-99.99,,,-99.99,,2013-05-17 09:02:00,
2013-05-17 05:12:00,78.0,-99.9,-100.00,ESE,115,6.0,8.0,-999,-99.99,,,-99.99,,2013-05-17 09:12:00,
2013-05-17 05:23:00,79.0,-99.9,-100.00,ESE,121,8.0,10.0,-999,-99.99,,,-99.99,,2013-05-17 09:23:00,
2013-05-17 05:33:00,79.0,-99.9,29.98,ESE,113,7.0,8.0,-999,-99.99,,,-99.99,,2013-05-17 09:33:00,
2013-05-17 05:42:00,79.0,-99.9,29.98,SE,131,6.0,8.0,-999,-99.99,,,-99.99,,2013-05-17 09:42:00,
2013-05-17 05:53:00,79.0,-99.9,29.99,ESE,110,5.0,8.0,-999,-99.99,,,-99.99,,2013-05-17 09:53:00,
2013-05-17 06:03:00,79.0,-99.9,29.99,ESE,114,6.0,9.0,-999,-99.99,,,-99.99,,2013-05-17 10:03:00,
2013-05-17 06:12:00,79.0,-99.9,29.99,SE,125,6.0,9.0,-999,-99.99,,,-99.99,,2013-05-17 10:12:00,
2013-05-17 06:23:00,79.0,-99.9,29.99,ESE,109,6.0,9.0,-999,-99.99,,,-99.99,,2013-05-17 10:23:00,
2013-05-17 06:33:00,79.0,-99.9,29.99,ESE,118,8.0,9.0,-999,-99.99,,,-99.99,,2013-05-17 10:33:00,
2013-05-17 06:42:00,79.0,-99.9,30.00,SE,134,8.0,9.0,-999,-99.99,,,-99.99,,2013-05-17 10:42:00,
2013-05-17 06:54:00,79.0,-99.9,30.00,ESE,123,6.0,8.0,-999,-99.99,,,-99.99,,2013-05-17 10:54:00,
2013-05-17 07:02:00,79.0,-99.9,30.01,SE,143,6.0,8.0,-999,-99.99,,,-99.99,,2013-05-17 11:02:00,
2013-05-17 07:12:00,79.0,-99.9,30.01,SE,143,6.0,8.0,-999,-99.99,,,-99.99,,2013-05-17 11:12:00,
2013-05-17 07:23:00,80.0,-99.9,30.01,SE,146,4.0,6.0,-999,-99.99,,,-99.99,,2013-05-17 11:23:00,
2013-05-17 07:34:00,80.0,-99.9,30.02,SSE,154,6.0,7.0,-999,-99.99,,,-99.99,,2013-05-17 11:34:00,
2013-05-17 07:42:00,80.0,-99.9,30.02,SSE,165,6.0,8.0,-999,-99.99,,,-99.99,,2013-05-17 11:42:00,
2013-05-17 07:53:00,80.0,-99.9,30.02,SE,129,5.0,7.0,-999,-99.99,,,-99.99,,2013-05-17 11:53:00,
2013-05-17 08:03:00,80.0,-99.9,30.02,ESE,121,5.0,7.0,-999,-99.99,,,-99.99,,2013-05-17 12:03:00,
2013-05-17 08:12:00,81.0,-99.9,30.02,East,94,7.0,10.0,-999,-99.99,,,-99.99,,2013-05-17 12:12:00,
2013-05-17 08:23:00,80.0,-99.9,30.03,ESE,120,6.0,13.0,-999,-99.99,,,-99.99,,2013-05-17 12:23:00,
2013-05-17 08:33:00,80.0,-99.9,30.02,ESE,108,8.0,11.0,-999,-99.99,,,-99.99,,2013-05-17 12:33:00,
2013-05-17 08:43:00,82.0,-99.9,30.02,East,84,7.0,11.0,-999,-99.99,,,-99.99,,2013-05-17 12:43:00,
2013-05-17 08:53:00,82.0,-99.9,30.03,ENE,74,5.0,9.0,-999,-99.99,,,-99.99,,2013-05-17 12:53:00,
2013-05-17 09:04:00,79.0,-99.9,30.03,SSE,148,8.0,14.0,-999,-99.99,,,-99.99,,2013-05-17 13:04:00,
2013-05-17 09:12:00,80.0,-99.9,30.03,ESE,110,6.0,10.0,-999,-99.99,,,-99.99,,2013-05-17 13:12:00,
2013-05-17 09:23:00,82.0,-99.9,30.03,East,90,8.0,14.0,-999,-99.99,,,-99.99,,2013-05-17 13:23:00,
2013-05-17 09:33:00,83.0,-99.9,30.03,East,91,7.0,15.0,-999,-99.99,,,-99.99,,2013-05-17 13:33:00,
2013-05-17 09:42:00,83.0,-99.9,30.03,East,83,7.0,10.0,-999,-99.99,,,-99.99,,2013-05-17 13:42:00,
2013-05-17 09:52:00,83.0,-99.9,30.03,ENE,76,7.0,9.0,-999,-99.99,,,-99.99,,2013-05-17 13:52:00,
2013-05-17 10:02:00,83.0,-99.9,30.03,East,81,7.0,12.0,-999,-99.99,,,-99.99,,2013-05-17 14:02:00,
2013-05-17 10:13:00,83.0,-99.9,30.03,East,79,8.0,10.0,-999,-99.99,,,-99.99,,2013-05-17 14:13:00,
2013-05-17 10:22:00,83.0,-99.9,30.03,ENE,74,7.0,9.0,-999,-99.99,,,-99.99,,2013-05-17 14:22:00,
2013-05-17 10:34:00,83.0,-99.9,30.03,ENE,78,7.0,11.0,-999,-99.99,,,-99.99,,2013-05-17 14:34:00,
2013-05-17 10:43:00,83.0,-99.9,30.03,ENE,76,7.0,11.0,-999,-99.99,,,-99.99,,2013-05-17 14:43:00,
2013-05-17 10:53:00,83.0,-99.9,30.03,ENE,78,7.0,10.0,-999,-99.99,,,-99.99,,2013-05-17 14:53:00,
2013-05-17 11:03:00,83.0,-99.9,30.03,ENE,75,7.0,10.0,-999,-99.99,,,-99.99,,2013-05-17 15:03:00,
2013-05-17 11:14:00,83.0,-99.9,30.03,ENE,66,5.0,8.0,-999,-99.99,,,-99.99,,2013-05-17 15:14:00,
2013-05-17 11:25:00,83.0,-99.9,30.03,ENE,66,6.0,8.0,-999,-99.99,,,-99.99,,2013-05-17 15:25:00,
2013-05-17 11:37:00,83.0,-99.9,30.03,ENE,62,6.0,9.0,-999,-99.99,,,-99.99,,2013-05-17 15:37:00,
2013-05-17 11:47:00,83.0,-99.9,30.04,ENE,71,5.0,12.0,-999,-99.99,,,-99.99,,2013-05-17 15:47:00,
2013-05-17 11:57:00,83.0,-99.9,30.03,ENE,62,5.0,9.0,-999,-99.99,,,-99.99,,2013-05-17 15:57:00,
2013-05-17 12:08:00,84.0,-99.9,30.04,ENE,72,4.0,9.0,-999,-99.99,,,-99.99,,2013-05-17 16:08:00,
2013-05-17 12:14:00,83.0,-99.9,30.03,ENE,62,8.0,14.0,-999,-99.99,,,-99.99,,2013-05-17 16:14:00,
2013-05-17 12:26:00,83.0,-99.9,30.03,ENE,64,9.0,12.0,-999,-99.99,,,-99.99,,2013-05-17 16:26:00,
2013-05-17 12:37:00,83.0,-99.9,30.03,ENE,63,8.0,17.0,-999,-99.99,,,-99.99,,2013-05-17 16:37:00,
2013-05-17 12:50:00,83.0,-99.9,30.03,ENE,66,8.0,13.0,-999,-99.99,,,-99.99,,2013-05-17 16:50:00,
2013-05-17 12:56:00,83.0,-99.9,30.03,ENE,67,8.0,18.0,-999,-99.99,,,-99.99,,2013-05-17 16:56:00,
2013-05-17 13:08:00,83.0,-99.9,30.03,ENE,66,8.0,11.0,-999,-99.99,,,-99.99,,2013-05-17 17:08:00,
2013-05-17 13:19:00,83.0,-99.9,30.02,ENE,64,9.0,14.0,-999,-99.99,,,-99.99,,2013-05-17 17:19:00,
2013-05-17 13:30:00,83.0,-99.9,30.02,ENE,65,8.0,17.0,-999,-99.99,,,-99.99,,2013-05-17 17:30:00,
2013-05-17 13:41:00,83.0,-99.9,30.02,ENE,66,6.0,9.0,-999,-99.99,,,-99.99,,2013-05-17 17:41:00,
2013-05-17 13:49:00,84.0,-99.9,30.02,ENE,70,6.0,9.0,-999,-99.99,,,-99.99,,2013-05-17 17:49:00,
2013-05-17 14:00:00,84.0,-99.9,30.01,ENE,65,6.0,10.0,-999,-99.99,,,-99.99,,2013-05-17 18:00:00,
2013-05-17 14:09:00,84.0,-99.9,30.01,ENE,60,6.0,14.0,-999,-99.99,,,-99.99,,2013-05-17 18:09:00,
2013-05-17 14:20:00,84.0,-99.9,30.01,ENE,69,5.0,8.0,-999,-99.99,,,-99.99,,2013-05-17 18:20:00,
2013-05-17 14:30:00,84.0,-99.9,30.01,ENE,60,5.0,9.0,-999,-99.99,,,-99.99,,2013-05-17 18:30:00,
2013-05-17 14:40:00,84.0,-99.9,30.01,ENE,68,6.0,8.0,-999,-99.99,,,-99.99,,2013-05-17 18:40:00,
2013-05-17 14:50:00,-999.0,-99.9,30.00,ENE,68,6.0,11.0,-999,-99.99,,,-99.99,,2013-05-17 18:50:00,
2013-05-17 15:01:00,84.0,-99.9,29.99,ENE,64,6.0,10.0,-999,-99.99,,,-99.99,,2013-05-17 19:01:00,
2013-05-17 15:10:00,84.0,-99.9,29.99,ENE,63,6.0,8.0,-999,-99.99,,,-99.99,,2013-05-17 19:10:00,
2013-05-17 15:20:00,84.0,-99.9,29.98,ENE,59,6.0,9.0,-999,-99.99,,,-99.99,,2013-05-17 19:20:00,
2013-05-17 15:30:00,84.0,-99.9,29.98,ENE,61,6.0,9.0,-999,-99.99,,,-99.99,,2013-05-17 19:30:00,
2013-05-17 15:41:00,84.0,-99.9,29.98,ENE,64,6.0,8.0,-999,-99.99,,,-99.99,,2013-05-17 19:41:00,
2013-05-17 15:51:00,84.0,-99.9,29.99,ENE,65,6.0,11.0,-999,-99.99,,,-99.99,,2013-05-17 19:51:00,
2013-05-17 16:01:00,84.0,-99.9,29.99,ENE,67,5.0,9.0,-999,-99.99,,,-99.99,,2013-05-17 20:01:00,
2013-05-17 16:10:00,84.0,-99.9,29.99,ENE,65,5.0,9.0,-999,-99.99,,,-99.99,,2013-05-17 20:10:00,
2013-05-17 16:20:00,83.0,-99.9,29.98,ENE,61,6.0,11.0,-999,-99.99,,,-99.99,,2013-05-17 20:20:00,
2013-05-17 16:30:00,84.0,-99.9,29.99,ENE,63,6.0,8.0,-999,-99.99,,,-99.99,,2013-05-17 20:30:00,
2013-05-17 16:41:00,84.0,-99.9,29.99,ENE,67,5.0,11.0,-999,-99.99,,,-99.99,,2013-05-17 20:41:00,
2013-05-17 16:50:00,84.0,-99.9,29.99,ENE,61,5.0,9.0,-999,-99.99,,,-99.99,,2013-05-17 20:50:00,
2013-05-17 16:58:00,83.0,-99.9,29.99,ENE,64,6.0,8.0,-999,-99.99,,,-99.99,,2013-05-17 20:58:00,
2013-05-17 17:07:00,83.0,-99.9,29.99,ENE,70,5.0,9.0,-999,-99.99,,,-99.99,,2013-05-17 21:07:00,
2013-05-17 17:17:00,83.0,-99.9,29.99,ENE,67,6.0,8.0,-999,-99.99,,,-99.99,,2013-05-17 21:17:00,
2013-05-17 17:26:00,84.0,-99.9,29.99,East,80,6.0,9.0,-999,-99.99,,,-99.99,,2013-05-17 21:26:00,
2013-05-17 17:39:00,83.0,-99.9,29.99,ENE,67,6.0,9.0,-999,-99.99,,,-99.99,,2013-05-17 21:39:00,
2013-05-17 17:49:00,83.0,-99.9,29.99,ENE,71,6.0,11.0,-999,-99.99,,,-99.99,,2013-05-17 21:49:00,
2013-05-17 17:58:00,83.0,-99.9,29.99,ENE,64,5.0,9.0,-999,-99.99,,,-99.99,,2013-05-17 21:58:00,
2013-05-17 18:07:00,83.0,-99.9,29.99,ENE,62,6.0,9.0,-999,-99.99,,,-99.99,,2013-05-17 22:07:00,
2013-05-17 18:17:00,83.0,-99.9,29.99,ENE,67,5.0,10.0,-999,-99.99,,,-99.99,,2013-05-17 22:17:00,
2013-05-17 18:28:00,83.0,-99.9,30.00,ENE,75,4.0,8.0,-999,-99.99,,,-99.99,,2013-05-17 22:28:00,
2013-05-17 18:38:00,82.0,-99.9,30.00,ENE,73,5.0,11.0,-999,-99.99,,,-99.99,,2013-05-17 22:38:00,
2013-05-17 18:47:00,83.0,-99.9,30.00,ENE,69,4.0,8.0,-999,-99.99,,,-99.99,,2013-05-17 22:47:00,
2013-05-17 18:55:00,82.0,-99.9,30.00,ENE,70,5.0,10.0,-999,-99.99,,,-99.99,,2013-05-17 22:55:00,
2013-05-17 19:04:00,82.0,-99.9,30.01,ENE,64,5.0,7.0,-999,-99.99,,,-99.99,,2013-05-17 23:04:00,
2013-05-17 19:13:00,82.0,-99.9,30.01,ENE,63,5.0,7.0,-999,-99.99,,,-99.99,,2013-05-17 23:13:00,
2013-05-17 19:23:00,82.0,-99.9,30.01,East,85,6.0,9.0,-999,-99.99,,,-99.99,,2013-05-17 23:23:00,
2013-05-17 19:38:00,82.0,-99.9,30.01,ENE,78,5.0,9.0,-999,-99.99,,,-99.99,,2013-05-17 23:38:00,
2013-05-17 19:47:00,82.0,-99.9,30.02,ENE,59,4.0,7.0,-999,-99.99,,,-99.99,,2013-05-17 23:47:00,
2013-05-17 19:54:00,82.0,-99.9,30.02,East,81,4.0,6.0,-999,-99.99,,,-99.99,,2013-05-17 23:54:00,
2013-05-17 20:02:00,81.0,-99.9,30.02,East,82,4.0,7.0,-999,-99.99,,,-99.99,,2013-05-18 00:02:00,
2013-05-17 20:14:00,81.0,-99.9,30.03,East,81,4.0,9.0,-999,-99.99,,,-99.99,,2013-05-18 00:14:00,
2013-05-17 20:22:00,81.0,-99.9,30.03,East,93,5.0,13.0,-999,-99.99,,,-99.99,,2013-05-18 00:22:00,
2013-05-17 20:34:00,81.0,-99.9,30.03,ENE,65,4.0,8.0,-999,-99.99,,,-99.99,,2013-05-18 00:34:00,
2013-05-17 20:45:00,81.0,-99.9,30.04,ENE,77,3.0,7.0,-999,-99.99,,,-99.99,,2013-05-18 00:45:00,
2013-05-17 20:54:00,81.0,-99.9,30.04,East,92,4.0,8.0,-999,-99.99,,,-99.99,,2013-05-18 00:54:00,
2013-05-17 21:03:00,81.0,-99.9,30.04,ENE,75,4.0,7.0,-999,-99.99,,,-99.99,,2013-05-18 01:03:00,
2013-05-17 21:14:00,81.0,-99.9,30.04,East,86,4.0,7.0,-999,-99.99,,,-99.99,,2013-05-18 01:14:00,
2013-05-17 21:24:00,81.0,-99.9,30.05,ENE,74,3.0,8.0,-999,-99.99,,,-99.99,,2013-05-18 01:24:00,
2013-05-17 21:32:00,81.0,-99.9,30.05,East,84,3.0,6.0,-999,-99.99,,,-99.99,,2013-05-18 01:32:00,
2013-05-17 21:43:00,81.0,-99.9,30.05,ENE,73,4.0,5.0,-999,-99.99,,,-99.99,,2013-05-18 01:43:00,
2013-05-17 21:52:00,81.0,-99.9,30.05,East,93,4.0,7.0,-999,-99.99,,,-99.99,,2013-05-18 01:52:00,
2013-05-17 22:03:00,81.0,-99.9,30.05,East,83,4.0,9.0,-999,-99.99,,,-99.99,,2013-05-18 02:03:00,
2013-05-17 22:12:00,81.0,-99.9,30.06,ENE,69,3.0,7.0,-999,-99.99,,,-99.99,,2013-05-18 02:12:00,
2013-05-17 22:23:00,81.0,-99.9,30.06,ENE,71,4.0,6.0,-999,-99.99,,,-99.99,,2013-05-18 02:23:00,
2013-05-17 22:32:00,81.0,-99.9,30.06,East,85,3.0,9.0,-999,-99.99,,,-99.99,,2013-05-18 02:32:00,
2013-05-17 22:43:00,81.0,-99.9,30.06,ESE,106,4.0,10.0,-999,-99.99,,,-99.99,,2013-05-18 02:43:00,
2013-05-17 22:54:00,81.0,-99.9,30.06,ENE,62,4.0,6.0,-999,-99.99,,,-99.99,,2013-05-18 02:54:00,
2013-05-17 23:03:00,81.0,-99.9,30.06,ENE,68,3.0,6.0,-999,-99.99,,,-99.99,,2013-05-18 03:03:00,
2013-05-17 23:12:00,81.0,-99.9,-100.00,ENE,65,3.0,6.0,-999,-99.99,,,-99.99,,2013-05-18 03:12:00,
2013-05-17 23:23:00,80.0,-99.9,-100.00,ENE,66,4.0,8.0,-999,-99.99,,,-99.99,,2013-05-18 03:23:00,
2013-05-17 23:33:00,81.0,-99.9,-100.00,ENE,59,5.0,7.0,-999,-99.99,,,-99.99,,2013-05-18 03:33:00,
2013-05-17 23:43:00,80.0,-99.9,-100.00,ENE,76,4.0,7.0,-999,-99.99,,,-99.99,,2013-05-18 03:43:00,
2013-05-17 23:53:00,80.0,-99.9,-100.00,East,85,4.0,9.0,-999,-99.99,,,-99.99,,2013-05-18 03:53:00,